Location: Kott?ru
(16.6209°N, 80.6208°E)
Time: 07:48:25
(UTC+00:00)

Max Valier Satellite - Visible Passes

Search period start: 10 June 2023 00:00
Search period end: 20 June 2023 00:00
Orbit: 443 x 457 km, 97.2° (Epoch: 10 June)

Date Brightness Start Highest point End Pass type
(mag) Time Alt. Az. Time Alt. Az. Time Alt. Az.
10 Jun ? 14:23:44 21° S 14:25:52 72° WSW 14:29:15 10° NNW visible
11 Jun ? 13:48:31 11° SE 13:51:08 26° ENE 13:54:01 10° NNE visible
12 Jun ? 14:46:56 16° SSW 14:48:53 27° W 14:51:48 10° NW visible
13 Jun ? 14:11:38 18° SSE 14:14:00 68° ENE 14:17:21 10° N visible
14 Jun ? 13:36:55 10° ESE 13:39:10 17° ENE 13:41:26 10° NE visible
14 Jun ? 15:10:30 10° WSW 15:11:44 12° W 15:12:59 10° WNW visible
15 Jun ? 14:34:34 18° SSW 14:36:44 43° W 14:39:58 10° NNW visible
16 Jun ? 13:59:09 14° SE 14:01:46 39° ENE 14:04:56 10° N visible
17 Jun ? 14:57:20 12° SW 14:59:19 18° W 15:01:42 10° NW visible
18 Jun ? 14:21:50 18° S 14:24:12 76° W 14:27:33 10° NNW visible
19 Jun ? 13:46:22 10° SE 13:49:08 24° ENE 13:51:55 10° NNE visible
